Weather History for KCKP - October, 2012

Change the Weather History Date:

Tuesday, October 16, 2012

  Actual Average Record
Temperature  
Mean Temperature 64 °F -  
Max Temperature 77 °F 61 °F 84 °F (1958)
Min Temperature 50 °F 34 °F 22 °F (1976)
Degree Days  
Heating Degree Days 2    
Growing Degree Days 14 (Base 50)    
Moisture  
Dew Point 44 °F    
Average Humidity 56    
Maximum Humidity 85    
Minimum Humidity 26    
Precipitation  
Precipitation 0.00 in - - ()
Sea Level Pressure  
Sea Level Pressure 29.51 in    
Wind  
Wind Speed 7 mph (WSW)    
Max Wind Speed 13 mph    
Max Gust Speed 22 mph    
Visibility 10 miles    
Events      
Averages and records for this station are not official NWS values.
T = Trace of Precipitation, MM = Missing Value Source: NWS Daily Summary

Daily Weather History Graph

Daily Weather History Graph

Search for Another Location

Airport or City:

Trip Planner

Search our weather history database for the weather conditions in past years. The results will help you decide how hot, cold, wet, or windy it might be!

Date:

Astronomy

Oct. 16, 2012 Rise Set
Actual Time 7:37 AM CDT 6:37 PM CDT
Civil Twilight 7:08 AM CDT 7:05 PM CDT
Nautical Twilight 6:35 AM CDT 7:38 PM CDT
Astronomical Twilight 6:03 AM CDT 8:11 PM CDT
Moon 9:04 AM CDT (10/16) 7:19 PM CDT (10/16)
Length of Visible Light 11h 57m
Length of Day
11h 00m
New Moon, 2% of the Moon is Illuminated
Oct 16
New Moon
Oct 21
First Quarter
Oct 29
Full
Nov 6
Last Quarter
Nov 13
New

Hourly Weather History & Observations

Time (CDT) Temp. Dew Point Humidity Pressure Visibility Wind Dir Wind Speed Gust Speed Precip Events Conditions
12:15 AM 53.1 °F 41.9 °F 66% 29.73 in 10.0 mi South 5.8 mph - N/A   Clear
12:35 AM 54.3 °F 42.3 °F 64% 29.72 in 10.0 mi South 8.1 mph - N/A   Clear
12:55 AM 55.8 °F 42.8 °F 62% 29.71 in 10.0 mi South 8.1 mph - N/A   Clear
1:15 AM 57.0 °F 43.0 °F 59% 29.70 in 10.0 mi South 9.2 mph - N/A   Clear
1:35 AM 57.2 °F 43.3 °F 60% 29.69 in 10.0 mi South 10.4 mph 16.1 mph N/A   Clear
1:55 AM 56.8 °F 43.9 °F 62% 29.68 in 10.0 mi South 9.2 mph - N/A   Clear
2:15 AM 56.5 °F 44.2 °F 64% 29.67 in 10.0 mi South 8.1 mph - N/A   Clear
2:35 AM 56.1 °F 44.6 °F 65% 29.66 in 10.0 mi South 9.2 mph - N/A   Clear
2:55 AM 54.7 °F 44.6 °F 69% 29.65 in 10.0 mi South 6.9 mph - N/A   Clear
3:15 AM 53.6 °F 45.1 °F 73% 29.64 in 10.0 mi South 6.9 mph - N/A   Clear
3:35 AM 52.7 °F 45.7 °F 77% 29.63 in 10.0 mi SSE 4.6 mph - N/A   Clear
3:55 AM 52.5 °F 45.9 °F 78% 29.62 in 10.0 mi SSE 4.6 mph - N/A   Clear
4:15 AM 52.3 °F 46.4 °F 80% 29.61 in 10.0 mi SSE 5.8 mph - N/A   Clear
4:35 AM 52.5 °F 46.4 °F 80% 29.60 in 10.0 mi SSE 5.8 mph - N/A   Clear
4:55 AM 52.5 °F 46.6 °F 80% 29.59 in 10.0 mi SSE 5.8 mph - N/A   Clear
5:15 AM 51.8 °F 46.4 °F 82% 29.58 in 10.0 mi South 5.8 mph - N/A   Clear
5:35 AM 52.7 °F 46.8 °F 80% 29.57 in 10.0 mi South 5.8 mph - N/A   Clear
5:55 AM 51.8 °F 46.4 °F 82% 29.56 in 10.0 mi SSE 5.8 mph - N/A   Clear
6:35 AM 52.9 °F 46.9 °F 80% 29.56 in 10.0 mi Calm Calm - N/A   Clear
7:15 AM 52.7 °F 46.8 °F 80% 29.54 in 10.0 mi SSE 6.9 mph - N/A   Clear
7:55 AM 50.9 °F 46.4 °F 85% 29.55 in 10.0 mi Calm Calm - N/A   Scattered Clouds
8:15 AM 52.5 °F 47.3 °F 82% 29.55 in 10.0 mi Calm Calm - N/A   Clear
8:35 AM 54.5 °F 47.8 °F 78% 29.55 in 10.0 mi South 3.5 mph - N/A   Clear
8:55 AM 55.0 °F 48.2 °F 78% 29.55 in 10.0 mi SSW 5.8 mph - N/A   Scattered Clouds
9:15 AM 55.8 °F 48.4 °F 76% 29.55 in 10.0 mi SSW 5.8 mph - N/A   Clear
9:35 AM 58.3 °F 48.7 °F 71% 29.54 in 10.0 mi SW 5.8 mph - N/A   Clear
9:55 AM 61.3 °F 48.7 °F 63% 29.54 in 10.0 mi West 6.9 mph - N/A   Clear
10:15 AM 61.0 °F 48.0 °F 62% 29.54 in 10.0 mi West 9.2 mph - N/A   Clear
10:35 AM 62.4 °F 47.5 °F 58% 29.53 in 10.0 mi West 6.9 mph - N/A   Clear
10:55 AM 62.8 °F 47.5 °F 57% 29.53 in 10.0 mi WNW 11.5 mph - N/A   Clear
11:15 AM 64.6 °F 46.6 °F 52% 29.53 in 10.0 mi NNW 8.1 mph - N/A   Clear
11:35 AM 65.7 °F 45.5 °F 48% 29.52 in 10.0 mi NNW 6.9 mph - N/A   Clear
11:55 AM 68.0 °F 45.0 °F 43% 29.52 in 10.0 mi NNW 8.1 mph - N/A   Clear
12:15 PM 69.6 °F 43.5 °F 39% 29.52 in 10.0 mi NW 10.4 mph 17.3 mph N/A   Clear
12:35 PM 71.2 °F 43.2 °F 36% 29.51 in 10.0 mi NW 6.9 mph - N/A   Clear
12:55 PM 73.0 °F 42.1 °F 33% 29.49 in 10.0 mi NNW 10.4 mph 16.1 mph N/A   Clear
1:15 PM 74.1 °F 42.1 °F 32% 29.48 in 10.0 mi WNW 9.2 mph - N/A   Clear
1:35 PM 74.1 °F 41.0 °F 30% 29.48 in 10.0 mi WNW 10.4 mph - N/A   Clear
1:55 PM 75.0 °F 40.8 °F 29% 29.47 in 10.0 mi NW 9.2 mph 21.9 mph N/A   Clear
2:15 PM 76.8 °F 41.0 °F 28% 29.46 in 10.0 mi WNW 11.5 mph 17.3 mph N/A   Clear
2:35 PM 76.8 °F 40.3 °F 27% 29.45 in 10.0 mi NW 10.4 mph - N/A   Clear
2:55 PM 77.0 °F 39.7 °F 26% 29.44 in 10.0 mi NW 9.2 mph 16.1 mph N/A   Clear
3:15 PM 77.0 °F 39.2 °F 26% 29.44 in 10.0 mi WNW 11.5 mph 16.1 mph N/A   Clear
3:35 PM 77.4 °F 39.4 °F 26% 29.44 in 10.0 mi NW 8.1 mph - N/A   Clear
3:55 PM 77.0 °F 40.6 °F 27% 29.43 in 10.0 mi West 11.5 mph 16.1 mph N/A   Clear
4:15 PM 76.8 °F 40.8 °F 27% 29.44 in 10.0 mi WNW 9.2 mph 17.3 mph N/A   Clear
4:35 PM 76.3 °F 40.8 °F 28% 29.43 in 10.0 mi WNW 9.2 mph 16.1 mph N/A   Clear
4:55 PM 75.7 °F 41.2 °F 29% 29.42 in 10.0 mi West 9.2 mph - N/A   Clear
5:15 PM 75.2 °F 41.5 °F 30% 29.42 in 10.0 mi WSW 12.7 mph 16.1 mph N/A   Clear
5:35 PM 73.9 °F 41.7 °F 31% 29.42 in 10.0 mi WSW 10.4 mph - N/A   Clear
5:55 PM 72.3 °F 42.1 °F 34% 29.43 in 10.0 mi West 8.1 mph - N/A   Clear
6:15 PM 70.3 °F 42.1 °F 36% 29.43 in 10.0 mi West 6.9 mph - N/A   Clear
6:35 PM 66.9 °F 42.1 °F 40% 29.43 in 10.0 mi WSW 5.8 mph - N/A   Clear
6:55 PM 65.1 °F 42.3 °F 43% 29.43 in 10.0 mi WSW 5.8 mph - N/A   Clear
7:15 PM 63.0 °F 42.4 °F 47% 29.43 in 10.0 mi West 3.5 mph - N/A   Clear
7:35 PM 59.7 °F 42.6 °F 53% 29.43 in 10.0 mi WSW 4.6 mph - N/A   Clear
7:55 PM 61.3 °F 42.6 °F 50% 29.43 in 10.0 mi Calm Calm - N/A   Clear
8:15 PM 60.6 °F 42.8 °F 52% 29.43 in 10.0 mi Calm Calm - N/A   Clear
8:35 PM 60.4 °F 42.4 °F 51% 29.42 in 10.0 mi Calm Calm - N/A   Clear
8:55 PM 57.7 °F 42.3 °F 56% 29.41 in 10.0 mi SSE 4.6 mph - N/A   Clear
9:15 PM 54.7 °F 41.4 °F 61% 29.41 in 10.0 mi Calm Calm - N/A   Clear
9:35 PM 54.9 °F 43.2 °F 65% 29.42 in 10.0 mi Calm Calm - N/A   Clear
9:55 PM 55.0 °F 42.3 °F 62% 29.41 in 10.0 mi Calm Calm - N/A   Clear
10:15 PM 55.4 °F 42.1 °F 61% 29.40 in 10.0 mi Calm Calm - N/A   Clear
10:35 PM 54.0 °F 42.1 °F 64% 29.40 in 10.0 mi Calm Calm - N/A   Clear
10:55 PM 52.7 °F 41.7 °F 66% 29.40 in 10.0 mi Calm Calm - N/A   Clear
11:15 PM 52.3 °F 43.7 °F 72% 29.39 in 10.0 mi Calm Calm - N/A   Clear
11:35 PM 52.0 °F 43.7 °F 73% 29.39 in 10.0 mi Calm Calm - N/A   Clear
11:55 PM 53.1 °F 42.6 °F 68% 29.38 in 10.0 mi Calm Calm - N/A   Clear